Theta_e
297 298 299 300 300 298 297 299 301 302 302 302 301 301 300 300 301 299 297 301 297 292 294 297 296 291 291 289 285 288 287 287 285 283 283 283 281 284 284 287 285 283 281 279 279 278 275 289 288 282 284 286 286 284
297 297 298 299 299 298 297 300 301 301 301 300 300 300 300 301 301 301 294 303 304 295 294 300 299 299 298 296 292 291 288 288 288 285 284 284 282 284 283 277 290 282 284 281 281 280 285 287 286 288 287 285 285 285
296 297 298 299 299 298 297 299 301 301 300 300 300 300 301 301 301 299 296 301 299 293 292 293 293 298 301 300 299 289 291 292 290 292 289 286 283 285 282 281 284 288 289 280 281 281 283 286 288 287 286 285 285 286
296 297 297 298 297 297 297 299 300 300 300 300 300 300 300 301 301 301 296 301 297 292 286 289 299 296 301 300 298 297 295 296 295 294 288 286 283 289 284 287 284 286 286 282 280 282 285 286 287 286 285 285 284 284
296 297 297 298 297 296 298 300 300 300 300 300 300 300 301 300 302 302 301 301 299 293 286 288 294 297 298 298 298 297 295 293 289 287 286 284 287 287 286 287 283 288 284 279 277 283 283 283 286 287 284 284 284 283
296 297 298 296 295 297 300 300 299 299 299 298 299 301 300 300 302 299 287 298 298 296 289 282 291 292 294 295 294 293 293 291 289 287 286 289 292 287 281 280 288 290 291 290 286 287 286 286 286 288 284 285 285 284
296 297 297 297 295 300 300 299 299 299 298 298 300 300 300 300 296 292 289 294 298 296 288 282 284 291 293 292 290 290 291 289 288 286 286 286 286 288 280 280 288 290 290 289 289 288 284 285 283 287 286 286 287 284
296 296 296 295 298 299 299 299 298 299 298 300 300 301 301 301 299 292 294 299 299 294 291 281 282 285 292 285 284 289 286 287 287 285 286 285 285 284 280 287 289 289 289 288 289 289 287 288 288 287 285 283 281 279
296 296 293 297 299 299 299 299 299 299 299 300 300 300 297 295 290 291 299 300 298 292 283 281 279 277 290 286 286 287 288 280 286 283 283 285 281 278 285 287 288 289 288 288 288 288 287 286 285 283 282 280 279 277
295 295 298 298 298 298 299 299 299 298 299 299 296 290 285 290 299 298 292 287 289 289 289 281 284 281 287 284 283 283 283 280 279 282 285 280 279 287 290 291 291 290 290 289 284 283 283 282 282 281 281 280 280 277
294 299 299 298 299 299 299 299 299 299 297 292 286 286 292 299 291 287 279 280 282 282 286 285 285 282 289 281 280 283 280 280 277 281 279 278 279 283 289 290 291 291 290 290 289 288 286 285 282 280 280 280 279 278
299 298 299 299 299 299 299 299 298 294 293 292 292 295 293 289 283 279 277 281 283 281 284 283 285 287 285 287 282 282 280 279 278 281 277 274 280 287 289 289 289 290 289 289 289 287 285 284 283 282 280 280 279 279
298 298 298 298 299 299 298 297 298 298 297 293 290 284 282 277 272 271 270 277 277 281 283 284 282 285 285 285 280 280 275 273 280 272 274 278 281 287 288 288 288 288 288 288 287 286 285 283 283 282 280 280 278 276
298 298 298 298 298 297 298 297 297 295 292 284 281 273 276 270 279 281 283 281 281 281 284 283 281 282 280 280 282 274 278 279 270 270 277 278 283 284 286 286 286 283 283 284 284 283 281 281 276 274 277 276 274 272
297 298 298 297 297 297 297 298 298 294 287 282 280 272 275 282 282 284 282 279 282 284 285 282 282 283 277 276 278 277 274 272 275 275 280 279 283 284 284 284 282 281 279 279 278 276 274 273 274 269 266 271 272 270
297 296 295 297 297 298 297 295 292 291 285 282 282 278 279 276 281 279 283 283 283 282 284 284 281 277 277 278 278 275 277 273 280 283 279 280 283 284 283 281 280 279 279 278 276 275 273 273 273 271 268 267 268 270
294 291 296 297 297 296 297 290 287 284 282 281 279 284 284 278 281 282 285 283 285 284 279 280 277 279 281 277 277 280 280 283 283 282 283 281 281 284 284 283 283 276 277 276 274 273 271 271 272 273 271 266 270 269
289 292 297 297 295 293 290 288 283 282 280 282 280 283 284 284 283 281 285 285 285 282 282 281 282 279 273 276 275 283 282 282 283 281 282 283 284 284 284 284 283 277 276 274 273 271 270 271 272 273 272 270 270 271
290 291 295 295 293 287 283 284 285 279 281 283 284 284 284 283 284 285 285 286 287 288 283 281 279 280 281 284 284 283 282 280 279 280 280 282 283 283 283 283 283 282 281 279 278 275 274 274 275 275 274 273 271 272
295 295 294 295 293 284 282 281 286 281 279 282 284 283 284 283 284 285 285 286 285 282 281 281 280 281 282 283 284 283 280 281 281 280 279 280 281 282 282 282 282 282 281 281 281 279 276 275 276 276 274 273 271 269
291 290 293 291 287 284 281 281 281 282 282 281 283 282 283 285 284 285 283 285 280 282 280 282 282 282 283 283 283 282 283 285 283 281 281 280 281 281 281 282 282 281 280 279 279 278 277 275 274 276 272 268 267 269
287 293 286 287 282 282 280 282 280 281 281 281 281 283 280 280 279 282 283 279 279 280 281 282 282 282 281 280 279 281 280 283 283 281 280 281 280 280 280 280 280 279 280 280 280 280 279 278 276 275 272 267 270 273
291 288 283 281 275 273 274 281 278 280 276 278 280 279 278 277 280 283 278 280 279 282 282 280 282 283 281 281 282 283 283 282 280 281 282 282 282 282 281 281 281 280 279 279 281 280 279 275 274 275 275 275 275 275
288 280 274 273 274 268 275 272 278 279 276 277 276 274 276 277 281 280 277 277 279 282 282 281 282 283 283 281 279 280 281 281 280 279 280 281 280 280 280 280 280 280 280 280 279 277 275 274 275 277 275 274 275 274
272 272 271 265 272 270 266 267 270 273 268 273 272 272 275 280 274 274 276 277 279 278 278 280 281 282 280 278 277 278 280 281 280 278 278 280 277 277 275 274 276 278 278 276 273 275 274 276 276 276 275 274 272 268
265 268 270 268 268 270 272 267 267 268 269 268 270 275 274 272 269 271 275 275 276 277 276 277 278 279 277 279 276 275 276 279 278 275 275 277 276 272 269 267 267 272 277 274 274 273 272 273 275 275 275 272 268 266
265 266 277 280 279 278 271 273 277 271 267 266 269 268 267 265 267 273 276 276 276 275 279 280 280 278 276 276 277 277 277 276 275 275 275 275 274 274 273 269 270 274 276 271 272 271 271 271 271 270 268 267 267 266
272 273 267 269 269 275 265 265 265 267 275 278 273 266 267 269 269 271 273 275 274 279 279 279 279 278 277 277 277 276 273 271 272 272 273 273 273 272 271 270 270 272 272 274 274 271 270 268 267 266 266 264 263 264
270 274 272 266 267 269 268 273 274 276 278 276 270 268 272 273 272 274 272 275 278 278 276 274 276 277 276 276 274 273 270 268 266 262 261 261 260 265 266 268 267 270 271 271 272 270 269 267 266 264 263 262 261 260
275 275 267 263 263 267 274 278 277 278 278 278 276 273 272 271 269 270 271 272 272 273 273 274 271 270 268 265 264 268 270 270 268 267 264 261 262 264 263 266 267 268 268 268 267 266 268 265 264 261 260 258 257 256
274 271 267 265 265 275 277 277 278 278 277 277 277 274 267 266 265 265 264 266 266 266 270 268 268 269 270 265 263 264 264 269 270 271 271 271 269 269 269 268 267 268 267 266 265 264 262 261 259 257 256 254 253 252
270 273 270 271 270 273 273 267 274 267 266 264 264 265 266 264 261 262 266 266 265 266 266 266 266 264 266 266 269 269 269 269 270 271 270 270 269 269 269 268 267 267 265 263 262 261 259 258 256 255 253 251 250 248
268 267 267 269 270 270 271 267 268 267 266 265 265 265 263 264 260 261 263 265 264 263 265 266 265 266 265 265 265 265 265 266 268 270 270 269 268 267 266 266 265 264 262 261 259 258 257 255 253 251 250 249 248 246
Wind_Speed
12 11 11 9 12 9 2 6 14 11 14 13 15 16 12 10 11 3 3 4 3 2 3 0 3 6 7 5 8 7 6 3 1 4 4 4 3 5 4 3 6 7 6 4 3 2 6 3 3 7 4 3 12 11
12 11 11 10 12 11 5 9 12 10 14 16 13 11 11 12 8 3 3 3 5 2 1 2 3 3 3 4 7 3 3 9 5 4 1 1 1 1 5 1 5 1 4 6 4 4 1 2 2 2 3 6 5 11
11 12 11 9 12 11 8 9 15 13 15 14 12 11 7 5 6 6 3 3 3 2 4 3 3 3 3 5 7 5 2 5 5 5 4 3 2 3 4 4 5 2 2 4 3 2 2 2 2 4 4 7 7 9
12 12 10 10 15 10 13 13 17 15 13 12 10 6 9 10 13 13 4 3 2 4 3 1 8 4 3 10 13 8 3 2 5 3 2 3 3 1 2 4 4 4 4 5 2 1 2 4 3 9 10 11 13 11
13 13 8 13 9 5 12 17 18 15 13 10 7 9 13 13 12 10 5 3 3 4 4 4 6 5 4 7 9 7 6 4 3 3 4 1 0 3 2 4 2 3 7 5 6 8 5 5 7 12 13 11 13 12
15 12 11 14 2 11 19 19 17 15 11 6 8 9 15 15 3 3 1 3 3 4 5 3 2 4 6 6 8 6 4 3 3 4 2 1 1 4 3 2 2 1 4 4 4 10 3 9 9 9 9 9 9 11
14 11 12 14 9 18 19 17 16 13 8 10 10 13 13 13 2 4 5 3 2 1 5 3 2 5 4 5 4 4 4 3 3 2 2 2 2 3 3 3 4 4 5 7 12 12 7 5 6 10 11 9 12 8
13 13 15 7 12 21 19 18 15 15 12 10 11 2 5 6 3 4 2 3 4 5 4 4 1 4 4 3 3 3 3 3 5 2 2 2 3 2 2 4 6 7 9 9 6 4 7 9 12 9 8 7 8 7
15 16 6 17 21 19 17 15 12 11 12 7 2 7 1 2 4 3 11 8 2 5 4 4 5 3 2 2 2 4 3 4 3 2 1 3 2 1 6 10 11 12 6 8 6 8 10 11 9 8 8 8 9 7
9 19 16 22 19 18 16 13 15 15 8 4 2 4 4 2 6 7 8 5 5 4 4 3 1 2 4 1 2 3 3 2 2 3 2 3 2 4 6 11 11 9 9 11 10 6 7 7 10 9 9 7 9 8
9 20 25 21 20 17 15 13 15 9 2 2 3 2 3 6 4 4 3 4 2 4 2 1 3 4 3 4 2 1 2 1 3 4 4 1 1 3 1 8 7 7 10 12 10 9 11 13 11 8 7 8 9 10
25 25 22 20 18 16 13 13 10 2 2 4 4 3 3 5 4 5 2 3 3 3 1 4 2 3 2 3 4 2 3 2 2 1 4 0 4 2 6 7 6 7 8 8 8 9 9 10 11 10 9 9 9 8
25 22 19 17 17 14 12 8 4 4 4 3 5 5 4 4 7 4 2 2 2 0 1 2 3 3 3 4 3 3 4 3 1 4 3 4 3 3 6 6 6 6 8 8 6 7 9 8 8 8 8 6 8 7
24 22 20 18 16 12 8 3 3 3 4 5 4 4 3 4 2 1 1 1 3 3 6 4 3 3 1 4 1 5 3 3 3 2 5 3 2 3 4 4 8 5 7 8 8 6 8 9 6 4 7 9 10 8
23 22 23 21 16 4 0 6 7 3 4 4 5 2 1 1 3 3 2 2 3 2 5 3 4 4 2 4 1 3 4 1 4 4 3 2 1 4 4 3 6 7 6 5 4 6 7 7 7 5 2 4 7 8
24 19 11 10 8 7 9 6 4 3 4 4 5 3 2 4 2 3 3 2 3 2 3 4 3 3 0 4 3 3 4 4 3 2 1 1 3 4 4 5 5 4 4 6 5 6 6 7 8 7 5 4 5 8
11 3 7 9 8 8 9 4 4 6 4 4 2 2 2 3 2 1 2 2 3 4 1 3 3 3 3 2 2 1 2 1 4 3 3 3 4 5 5 5 4 4 5 5 3 5 5 5 8 7 6 1 4 4
7 5 10 8 4 5 4 5 4 4 5 3 2 2 2 2 2 2 2 2 3 2 2 1 3 3 2 3 1 2 3 5 5 4 3 3 4 4 4 5 5 5 5 5 5 4 4 6 5 3 6 5 5 4
5 4 7 9 4 4 4 5 4 3 2 1 1 2 2 1 1 2 2 2 0 1 2 3 5 3 2 2 3 4 4 3 3 2 2 3 3 4 5 5 4 5 5 4 3 2 2 3 3 4 5 5 3 4
10 8 5 5 4 4 4 3 3 4 2 1 2 2 1 1 2 2 2 4 3 3 5 4 2 2 2 2 3 2 2 5 8 5 3 1 2 4 4 4 3 4 4 4 3 4 3 1 1 4 4 5 5 4
7 6 10 5 4 5 4 2 4 2 2 2 1 1 1 1 2 3 3 3 5 4 3 3 2 2 3 3 3 2 5 2 2 3 4 4 2 3 2 2 4 3 3 2 2 3 3 3 3 4 4 3 3 3
2 6 4 6 5 5 4 3 2 0 3 1 2 2 2 2 2 2 2 5 3 3 2 1 1 1 4 4 2 3 1 5 5 5 7 6 3 3 2 2 2 2 3 3 3 4 3 2 4 4 4 2 4 4
5 6 5 5 7 6 4 3 5 3 3 2 2 3 2 2 0 1 4 3 2 2 2 2 2 3 4 3 6 7 6 7 5 3 4 5 5 4 4 3 2 2 1 1 1 3 3 4 4 6 5 6 6 6
7 5 5 3 5 1 3 5 2 3 4 3 3 2 2 1 2 3 3 2 1 1 4 6 3 4 4 6 5 5 5 3 5 5 3 5 5 4 4 3 3 3 2 1 3 3 3 4 5 5 6 7 6 7
9 7 6 5 4 6 5 5 5 4 2 1 3 3 2 2 2 3 3 2 2 2 3 4 5 4 4 3 3 3 7 4 4 6 5 4 3 2 3 3 3 3 3 3 3 4 3 4 3 5 6 7 10 10
6 5 4 1 4 4 1 2 0 3 2 2 1 2 3 3 4 2 2 2 2 2 2 3 3 3 5 4 2 2 3 3 3 5 3 3 3 2 3 3 2 4 4 2 4 4 4 3 4 7 7 11 14 13
4 3 3 2 1 2 4 3 1 4 2 2 2 2 3 3 1 1 1 3 2 1 1 2 2 3 4 3 3 3 4 4 5 5 3 5 5 4 2 3 4 2 4 3 4 5 7 8 9 10 10 9 8 9
4 2 3 4 3 1 3 2 2 2 2 3 3 2 4 2 2 1 1 0 1 2 3 3 3 3 3 3 3 4 3 3 5 5 6 6 6 6 6 5 5 8 7 6 7 8 8 9 9 10 11 10 9 7
2 2 4 4 3 2 2 1 1 2 3 1 2 1 2 2 2 2 2 2 2 1 2 2 2 3 5 5 5 4 2 2 4 5 5 1 3 4 4 4 5 6 7 10 15 12 13 11 11 11 11 10 8 8
1 1 4 1 3 1 1 2 2 1 2 1 3 3 2 2 2 3 4 4 4 3 2 3 2 2 3 4 2 4 4 2 0 4 5 4 4 2 2 4 5 6 6 9 10 11 15 13 12 9 9 8 7 8
1 2 3 2 2 1 2 1 1 1 1 1 2 3 3 3 2 2 2 2 2 2 3 3 4 5 4 4 3 3 2 5 5 8 9 8 6 5 5 5 4 5 6 7 8 8 9 9 8 9 10 10 9 8
1 2 2 1 1 2 2 1 1 2 1 3 2 3 2 3 1 3 4 4 3 4 4 3 4 2 3 2 5 5 6 3 5 6 8 7 7 6 6 6 6 7 8 8 8 8 10 10 8 8 9 9 8 7
2 2 2 2 1 0 2 3 1 1 3 2 2 1 2 3 4 3 3 2 2 3 3 4 4 4 6 7 6 6 7 7 12 13 14 12 11 9 6 6 6 7 9 8 8 9 10 12 9 9 8 8 7 7
Wind_Direction
201 210 213 211 180 156 159 260 219 216 217 194 204 194 204 231 252 225 258 196 205 206 288 218 138 141 130 148 158 176 79 311 25 169 172 234 178 192 122 176 165 164 161 180 128 159 267 138 88 166 201 80 148 154
205 211 219 205 191 182 25 274 187 198 179 170 179 191 216 234 211 239 267 213 191 225 230 65 73 117 62 110 119 152 91 148 183 151 273 190 131 68 136 189 351 103 172 172 188 216 229 290 167 138 130 119 147 149
211 216 218 194 190 171 206 249 166 169 170 176 194 210 245 224 248 225 254 248 97 115 36 38 130 219 217 120 170 116 288 203 201 169 179 139 90 125 133 223 118 118 138 96 102 275 170 358 70 106 108 116 111 128
218 213 206 182 155 166 214 242 171 178 185 192 200 226 267 275 257 232 214 201 162 106 94 357 277 63 142 184 180 166 167 141 116 101 108 115 140 138 177 138 127 196 95 117 22 303 85 294 111 126 110 113 112 120
215 205 215 178 172 212 249 184 171 179 193 200 207 258 277 273 268 191 212 258 242 118 133 158 54 342 15 105 122 129 118 101 78 50 63 176 310 82 19 78 81 190 158 161 216 189 158 185 144 135 131 137 138 139
204 209 190 156 97 254 182 163 167 179 182 186 259 282 281 290 70 81 115 237 360 128 100 86 284 30 33 69 79 76 75 78 89 117 151 61 352 103 95 102 332 93 126 154 180 142 142 128 125 140 121 137 140 140
197 184 178 184 273 183 156 157 162 155 182 235 252 247 258 271 122 198 167 187 329 85 88 69 37 327 4 37 29 40 36 63 90 93 65 118 354 72 94 147 198 101 95 90 117 107 78 131 144 127 114 117 124 114
196 181 160 237 213 154 157 163 167 166 212 231 259 120 115 93 112 33 350 349 325 90 84 99 14 34 22 21 42 7 51 29 15 120 32 81 2 42 64 132 127 115 108 117 123 88 139 126 138 130 117 115 115 120
167 172 253 197 156 153 153 160 155 155 219 247 258 307 325 23 43 281 315 319 81 116 113 98 129 188 356 50 54 27 59 47 295 73 51 83 331 214 181 156 150 154 160 161 114 110 122 135 138 137 134 133 130 132
168 185 173 140 145 143 146 156 137 191 224 247 11 38 6 310 290 324 5 27 17 355 45 91 147 131 101 47 28 64 15 143 86 262 53 74 243 272 167 168 159 166 139 133 118 121 121 130 150 154 159 147 143 145
231 156 137 138 136 142 142 136 149 201 283 69 71 133 249 313 44 33 27 73 325 48 37 108 114 116 337 100 149 166 168 155 97 255 119 304 286 259 145 138 154 155 152 162 162 162 165 159 156 149 147 148 149 153
126 123 128 131 131 127 132 133 135 204 229 191 131 120 32 36 36 71 331 335 54 163 50 110 139 127 42 95 98 349 109 40 155 158 75 16 253 235 128 126 140 151 147 142 146 152 152 152 158 157 154 158 164 160
123 121 123 117 110 106 95 67 37 90 6 32 42 52 59 320 46 103 194 320 82 178 144 109 56 101 42 47 60 84 74 207 63 52 201 222 261 128 126 114 97 105 122 123 121 134 136 138 137 147 151 148 142 139
120 117 119 122 110 82 72 89 21 48 63 72 100 29 81 347 94 72 45 181 254 119 109 97 62 85 61 56 103 83 237 76 57 91 214 239 205 117 112 119 114 120 119 128 132 129 136 141 132 108 144 148 138 150
113 114 110 108 109 117 251 73 47 48 72 70 65 48 73 117 21 1 308 24 339 123 88 60 47 82 31 88 79 104 41 197 186 210 197 198 111 100 95 90 123 125 119 116 120 120 124 129 130 112 47 130 122 121
110 104 106 123 149 92 53 40 35 51 52 58 41 51 349 66 17 14 15 1 333 71 69 61 101 68 217 133 105 206 149 201 179 92 76 82 69 76 92 77 61 62 110 123 117 125 125 130 136 133 97 79 115 137
88 62 134 103 80 37 28 81 49 48 67 47 19 0 51 95 62 20 342 318 331 64 106 107 83 187 114 71 68 81 127 101 113 83 51 60 108 117 108 94 84 75 95 105 101 95 108 107 114 114 125 181 136 129
89 108 90 67 26 33 23 40 66 66 58 11 59 18 52 39 74 345 298 320 50 64 71 175 137 69 116 123 242 105 80 70 71 103 75 58 81 69 81 106 110 108 93 88 88 92 107 122 130 131 125 133 115 123
120 99 56 43 80 86 66 12 67 87 67 32 18 20 67 89 327 288 294 307 103 135 76 37 55 48 43 16 86 107 142 150 137 101 61 46 64 86 86 84 92 105 116 119 115 120 136 143 143 136 138 147 150 158
86 42 354 6 54 81 67 10 62 79 70 41 19 31 46 44 316 320 345 22 25 51 43 44 35 11 21 3 24 68 106 118 122 114 101 73 54 91 95 102 99 106 104 111 107 127 123 90 96 140 153 154 148 173
38 334 14 49 40 58 93 43 45 100 125 77 210 79 42 6 35 24 20 326 56 28 68 36 51 47 16 61 44 40 60 90 171 162 146 145 166 119 114 133 123 116 124 145 152 165 169 195 187 158 154 165 163 164
316 19 49 21 61 31 60 13 119 177 80 238 36 75 47 39 13 6 301 49 54 11 13 62 14 78 61 45 357 28 44 72 53 74 84 112 125 129 115 132 126 170 186 196 181 181 189 173 144 138 139 142 135 132
17 36 36 36 60 41 283 7 57 24 74 317 32 48 10 32 236 284 77 75 77 359 328 9 50 73 80 40 53 45 44 79 65 49 79 83 78 79 80 59 41 96 132 248 150 138 138 114 116 122 118 117 118 112
28 53 48 53 67 257 358 5 18 47 23 29 61 50 3 319 339 62 74 65 54 15 18 1 23 91 75 52 49 33 13 51 81 53 32 94 94 72 79 72 43 25 344 119 94 102 112 115 121 124 122 125 124 106
67 333 77 346 331 55 34 11 357 43 33 9 64 6 318 7 56 63 85 115 66 42 9 10 28 40 100 85 38 30 16 19 84 83 15 36 78 67 54 48 38 29 4 70 65 103 94 105 110 127 127 124 112 110
69 296 87 210 308 88 224 63 183 191 108 33 324 302 29 70 63 72 53 57 79 38 24 29 7 68 51 45 82 29 351 339 90 86 44 25 28 132 153 124 47 339 348 125 120 114 96 96 102 99 107 113 119 116
59 309 319 357 173 66 20 356 21 90 106 158 232 41 64 68 105 121 116 20 94 317 54 31 10 90 120 104 81 48 30 43 77 94 78 53 38 17 96 117 105 345 332 90 92 105 104 97 95 96 94 82 87 107
183 93 114 282 34 35 128 30 63 54 349 7 73 66 130 167 177 343 98 289 128 82 90 78 54 65 100 106 100 99 67 55 76 77 76 53 41 37 42 47 33 37 45 57 89 91 95 100 99 96 96 96 89 82
32 309 77 353 349 29 114 88 71 55 333 353 102 73 94 54 12 42 333 335 343 28 129 112 98 90 83 75 62 58 82 94 82 79 88 94 13 360 2 43 41 47 64 75 74 83 89 91 92 92 90 91 88 84
320 75 80 63 106 254 289 16 85 84 13 29 121 101 74 69 32 358 15 18 26 6 10 82 64 101 155 119 93 42 17 11 129 154 157 169 185 180 68 68 69 68 77 85 90 89 87 89 89 83 86 86 86 87
139 62 43 97 183 335 82 67 47 103 187 139 94 83 144 161 21 7 16 312 301 349 99 70 52 25 91 112 123 105 34 357 21 83 101 105 109 103 99 90 81 81 82 87 91 94 96 89 90 94 93 95 93 100
87 185 146 57 241 267 72 161 221 173 217 70 301 73 74 73 60 317 329 346 50 65 47 65 92 59 13 36 63 72 82 80 69 78 86 94 90 87 86 83 82 86 88 89 91 94 93 98 100 102 105 104 106 106
34 36 26 65 76 196 301 75 321 321 38 57 10 114 113 132 187 234 300 21 124 142 105 94 87 80 71 68 73 72 63 63 68 78 81 84 89 89 84 81 86 89 90 90 90 98 99 103 104 105 107 112 114 115